Weather History for Nashua, NH

Change the Weather History Date:

Sunday, October 27, 2013

  Actual Average Record
Temperature  
Mean Temperature 46 °F -  
Max Temperature 54 °F 57 °F 83 °F (1963)
Min Temperature 34 °F 33 °F 19 °F (1952)
Degree Days  
Heating Degree Days 20    
Moisture  
Dew Point 30 °F    
Average Humidity 53    
Maximum Humidity 79    
Minimum Humidity 37    
Precipitation  
Precipitation 0.00 in - - ()
Sea Level Pressure  
Sea Level Pressure 30.64 in    
Wind  
Wind Speed 4 mph (WNW)    
Max Wind Speed 13 mph    
Max Gust Speed 25 mph    
Visibility 10 miles    
Events      
Averages and records for this station are not official NWS values.
T = Trace of Precipitation, MM = Missing Value Source: NWS Daily Summary

Daily Weather History Graph

Daily Weather History Graph

Search for Another Location

Airport:

Trip Planner

Search our weather history database for the weather conditions in past years. The results will help you decide how hot, cold, wet, or windy it might be!

Date:

Astronomy

Oct. 27, 2013 Rise Set
Actual Time 7:14 AM EDT 5:45 PM EDT
Civil Twilight 6:45 AM EDT 6:14 PM EDT
Nautical Twilight 6:11 AM EDT 6:47 PM EDT
Astronomical Twilight 5:39 AM EDT 7:19 PM EDT
Moon No Moon Rise 2:01 PM EDT (10/27)
Length of Visible Light 11h 29m
Length of Day
10h 30m
Last Quarter, 44% of the Moon is Illuminated
Oct 27
Last Quarter
Nov 3
New
Nov 10
First Quarter
Nov 17
Full
Nov 25
Last Quarter

Hourly Weather History & Observations

Time (EDT) Temp. Windchill Dew Point Humidity Pressure Visibility Wind Dir Wind Speed Gust Speed Precip Events Conditions
12:51 AM 48.9 °F - 30.0 °F 48% 30.59 in 10.0 mi Calm Calm - N/A   Clear
1:51 AM 47.8 °F - 31.1 °F 52% 30.58 in 10.0 mi Calm Calm - N/A   Mostly Cloudy
2:51 AM 47.8 °F - 32.0 °F 54% 30.56 in 10.0 mi Calm Calm - N/A   Clear
3:51 AM 46.9 °F - 32.9 °F 58% 30.54 in 10.0 mi Variable 4.6 mph - N/A   Clear
4:51 AM 45.9 °F 42.9 °F 32.9 °F 61% 30.54 in 10.0 mi Variable 5.8 mph - N/A   Clear
5:51 AM 45.9 °F - 32.9 °F 61% 30.55 in 10.0 mi Calm Calm - N/A   Clear
6:51 AM 45.9 °F - 32.9 °F 61% 30.56 in 10.0 mi Calm Calm - N/A   Overcast
7:51 AM 43.9 °F - 32.9 °F 65% 30.59 in 10.0 mi Calm Calm - N/A   Partly Cloudy
8:51 AM 47.8 °F - 32.9 °F 56% 30.60 in 10.0 mi SW 5.8 mph - N/A   Clear
9:51 AM 48.9 °F - 32.9 °F 54% 30.61 in 10.0 mi Variable 6.9 mph - N/A   Scattered Clouds
10:51 AM 52.0 °F - 32.0 °F 47% 30.62 in 10.0 mi NW 11.5 mph - N/A   Mostly Cloudy
11:51 AM 50.9 °F - 31.1 °F 47% 30.62 in 10.0 mi WNW 12.7 mph 20.7 mph N/A   Overcast
12:51 PM 52.0 °F - 32.0 °F 47% 30.61 in 10.0 mi NW 5.8 mph 13.8 mph N/A   Mostly Cloudy
1:51 PM 54.0 °F - 30.0 °F 40% 30.60 in 10.0 mi WNW 11.5 mph 25.3 mph N/A   Mostly Cloudy
2:51 PM 52.9 °F - 27.1 °F 37% 30.60 in 10.0 mi NW 11.5 mph 24.2 mph N/A   Mostly Cloudy
3:51 PM 52.9 °F - 28.0 °F 38% 30.62 in 10.0 mi NW 10.4 mph 18.4 mph N/A   Scattered Clouds
4:51 PM 52.0 °F - 26.1 °F 37% 30.63 in 10.0 mi WNW 12.7 mph 23.0 mph N/A   Scattered Clouds
5:51 PM 50.9 °F - 25.2 °F 37% 30.67 in 10.0 mi WNW 10.4 mph - N/A   Partly Cloudy
6:51 PM 47.8 °F - 26.1 °F 43% 30.71 in 10.0 mi Calm Calm - N/A   Overcast
7:51 PM 45.9 °F 43.6 °F 28.0 °F 50% 30.74 in 10.0 mi West 4.6 mph - N/A   Partly Cloudy
8:51 PM 43.9 °F 39.3 °F 29.1 °F 56% 30.76 in 10.0 mi West 8.1 mph - N/A   Clear
9:51 PM 39.9 °F - 29.1 °F 65% 30.78 in 10.0 mi Calm Calm - N/A   Clear
10:51 PM 37.9 °F - 29.1 °F 71% 30.81 in 10.0 mi Calm Calm - N/A   Clear
11:51 PM 34.9 °F - 29.1 °F 79% 30.81 in 10.0 mi Calm Calm - N/A   Clear